3 juli 2022

Tijd Code Weer Temp. Zicht Plafond Wind METAR/SPECI
5:20 a.m.
L
55 °F 0 mi - Var 000° 0 kt METAR ETWM 030320Z AUTO 00000KT //// // ////// 13/12 Q1016 ///
4:20 a.m.
L
59 °F 0 mi - 280° 280° 1 kt METAR ETWM 030220Z AUTO 28001KT //// // ////// 15/12 Q1016 ///
3:20 a.m.
L
59 °F 0 mi - Var 000° 0 kt METAR ETWM 030120Z AUTO 00000KT //// // ////// 15/12 Q1016 ///
2:20 a.m.
L
61 °F 0 mi - Var 000° 0 kt METAR ETWM 030020Z AUTO 00000KT //// // ////// 16/12 Q1017 ///
1:20 a.m.
L
61 °F 0 mi - Var 000° 0 kt METAR ETWM 022320Z AUTO 00000KT //// // ////// 16/12 Q1017 ///
12:20 a.m.
L
61 °F 0 mi - 020° 020° 1 kt METAR ETWM 022220Z AUTO 02001KT //// // ////// 16/12 Q1017 ///

2 juli 2022

Tijd Code Weer Temp. Zicht Plafond Wind METAR/SPECI
11:20 p.m.
L
63 °F 0 mi - Var 000° 0 kt METAR ETWM 022120Z AUTO 00000KT //// // ////// 17/12 Q1018 ///
10:20 p.m.
L
64 °F 0 mi - 360° 360° 1 kt METAR ETWM 022020Z AUTO 36001KT //// // ////// 18/12 Q1018 ///
9:20 p.m.
L
66 °F 0 mi - Var 000° 0 kt METAR ETWM 021920Z AUTO 00000KT //// // ////// 19/13 Q1018 ///
8:20 p.m.
L
72 °F 0 mi - 340° 340° 1 kt METAR ETWM 021820Z AUTO 34001KT //// // ////// 22/12 Q1018 ///
7:20 p.m.
L
75 °F 0 mi - 280° 280° 4 kt METAR ETWM 021720Z AUTO 28004KT //// // ////// 24/09 Q1018 ///
6:20 p.m.
L
75 °F 0 mi - 240° 240° 4 kt METAR ETWM 021620Z AUTO 24004KT //// // ////// 24/08 Q1019 ///
5:20 p.m.
L
75 °F 0 mi - 120° 120° 5 kt METAR ETWM 021520Z AUTO 12005KT //// // ////// 24/08 Q1019 ///
4:20 p.m.
L
75 °F 0 mi - 240° 240° 7 kt METAR ETWM 021420Z AUTO 24007KT //// // ////// 24/08 Q1020 ///
3:20 p.m.
L
72 °F 0 mi - 210° 210° 5 kt METAR ETWM 021320Z AUTO 21005KT //// // ////// 22/09 Q1020 ///
2:20 p.m.
L
72 °F 0 mi - 220° 220° 6 kt METAR ETWM 021220Z AUTO 22006KT //// // ////// 22/09 Q1021 ///
1:20 p.m.
L
70 °F 0 mi - 230° 230° 7 kt METAR ETWM 021120Z AUTO 23007KT //// // ////// 21/09 Q1021 ///
12:20 p.m.
L
70 °F 0 mi - 210° 210° 8 kt METAR ETWM 021020Z AUTO 21008KT //// // ////// 21/09 Q1021 ///
11:20 a.m.
L
70 °F 0 mi - 190° 190° 8 kt METAR ETWM 020920Z AUTO 19008KT //// // ////// 21/09 Q1022 ///
10:20 a.m.
L
68 °F 0 mi - 220° 220° 9 kt METAR ETWM 020820Z AUTO 22009KT //// // ////// 20/08 Q1022 ///
9:20 a.m.
L
64 °F 0 mi - 210° 210° 6 kt METAR ETWM 020720Z AUTO 21006KT //// // ////// 18/10 Q1022 ///
8:20 a.m.
L
63 °F 0 mi - 200° 200° 6 kt METAR ETWM 020620Z AUTO 20006KT //// // ////// 17/11 Q1022 ///
7:20 a.m.
L
59 °F 0 mi - Var Var 3 kt METAR ETWM 020520Z AUTO VRB03KT //// // ////// 15/10 Q1021 ///
6:20 a.m.
L
52 °F 0 mi - 190° 190° 2 kt METAR ETWM 020420Z AUTO 19002KT //// // ////// 11/10 Q1021 ///
5:20 a.m.
L
50 °F 0 mi - 190° 190° 2 kt METAR ETWM 020320Z AUTO 19002KT //// // ////// 10/09 Q1021 ///
4:20 a.m.
L
52 °F 0 mi - 200° 200° 3 kt METAR ETWM 020220Z AUTO 20003KT //// // ////// 11/10 Q1021 ///
3:20 a.m.
L
52 °F 0 mi - Var Var 2 kt METAR ETWM 020120Z AUTO VRB02KT //// // ////// 11/10 Q1021 ///
2:20 a.m.
L
54 °F 0 mi - 210° 210° 2 kt METAR ETWM 020020Z AUTO 21002KT //// // ////// 12/10 Q1021 ///
1:20 a.m.
L
55 °F 0 mi - 230° 230° 2 kt METAR ETWM 012320Z AUTO 23002KT //// // ////// 13/10 Q1021 ///
12:20 a.m.
L
57 °F 0 mi - Var Var 2 kt METAR ETWM 012220Z AUTO VRB02KT //// // ////// 14/10 Q1021 ///

1 juli 2022

Tijd Code Weer Temp. Zicht Plafond Wind METAR/SPECI
11:20 p.m.
L
59 °F 0 mi - 230° 230° 3 kt METAR ETWM 012120Z AUTO 23003KT //// // ////// 15/10 Q1020 ///
10:20 p.m.
L
61 °F 0 mi - 220° 220° 3 kt METAR ETWM 012020Z AUTO 22003KT //// // ////// 16/09 Q1020 ///
9:20 p.m.
L
64 °F 0 mi - 220° 220° 3 kt METAR ETWM 011920Z AUTO 22003KT //// // ////// 18/09 Q1019 ///
8:20 p.m.
L
66 °F 0 mi - 250° 250° 8 kt METAR ETWM 011820Z AUTO 25008KT //// // ////// 19/08 Q1018 ///
7:20 p.m.
L
68 °F 0 mi - 260° 260° 7 kt METAR ETWM 011720Z AUTO 26007KT //// // ////// 20/10 Q1018 ///
6:20 p.m.
L
72 °F 0 mi - 250° 250° 7 kt METAR ETWM 011620Z AUTO 25007KT //// // ////// 22/07 Q1017 ///
5:20 p.m.
L
70 °F 0 mi - 240° 240° 7 - 18 kt METAR ETWM 011520Z AUTO 24007G18KT //// // ////// 21/09 Q1017 ///
4:20 p.m.
L
68 °F 0 mi - 240° 240° 7 kt METAR ETWM 011420Z AUTO 24007KT //// // ////// 20/09 Q1017 ///
3:20 p.m.
L
68 °F 0 mi - 220° 220° 8 kt METAR ETWM 011320Z AUTO 22008KT //// // ////// 20/09 Q1017 ///
2:20 p.m.
L
68 °F 0 mi - 220° 220° 8 kt METAR ETWM 011220Z AUTO 22008KT //// // ////// 20/10 Q1016 ///
1:20 p.m.
L
64 °F 0 mi - 250° 250° 8 kt METAR ETWM 011120Z AUTO 25008KT //// // ////// 18/11 Q1017 ///
12:20 p.m.
L
63 °F 0 mi - 240° 240° 7 kt METAR ETWM 011020Z AUTO 24007KT //// // ////// 17/11 Q1017 ///
11:20 a.m.
L
63 °F 0 mi - 210° 210° 5 kt METAR ETWM 010920Z AUTO 21005KT //// // ////// 17/12 Q1016 ///
10:20 a.m.
V
59 °F 6¼ mi+ 13.000 ft 230° 230° 6 kt METAR ETWM 010820Z 23006KT 9999 SCT012 BKN130 15/12 Q1016 BLU
9:20 a.m.
V
59 °F 6¼ mi+ 11.000 ft 230° 230° 7 kt METAR ETWM 010720Z 23007KT 9999 SCT012 BKN110 15/12 Q1015 BLU
8:20 a.m.
M
57 °F 6¼ mi+ 1.400 ft 240° 240° 5 kt METAR ETWM 010620Z 24005KT 9999 SCT009 BKN014 BKN110 14/13 Q1015 GRN
7:20 a.m.
I
57 °F 5⅝ mi 900 ft 220° 220° 5 kt METAR ETWM 010520Z 22005KT 9000 BKN009 BKN110 14/13 Q1015 GRN
6:20 a.m.
I
57 °F 6¼ mi+ 800 ft 210° 210° 5 kt METAR ETWM 010420Z 21005KT 9999 BKN008 14/13 Q1014 GRN
5:20 a.m.
L
57 °F 0 mi - 250° 250° 6 kt METAR ETWM 010320Z AUTO 25006KT //// // ////// 14/13 Q1014 ///
4:20 a.m.
L
57 °F 0 mi - 250° 250° 4 kt METAR ETWM 010220Z AUTO 25004KT //// // ////// 14/14 Q1013 ///
3:20 a.m.
L
57 °F 0 mi - 250° 250° 5 kt METAR ETWM 010120Z AUTO 25005KT //// // ////// 14/13 Q1013 ///
2:20 a.m.
L
57 °F 0 mi - 260° 260° 4 kt METAR ETWM 010020Z AUTO 26004KT //// // ////// 14/13 Q1013 ///
Oudere gegevens

Installeer onze app

Gemakkelijke toegang tot al het luchtvaartweer op je mobiele telefoon en tablet.
Met veel functies die niet op de website beschikbaar zijn, zoals offline ondersteuning en een persoonlijke lijst van vliegvelden.

Met cookies volgen wij en derde partijen jouw internetgedrag binnen onze site. Als je verdergaat gaan we ervan uit dat je dit goedvindt. Meer info